Temp
57 48 44 49 51 53 52 50 49 54 62 59 56 55 60 64 62 62 65 65 66 67 75 74 76 73 70 67 68 70 70 70 70 69 68 68 70 67 67 68 69 71 70 70
50 45 55 58 57 54 52 49 49 55 61 56 56 56 59 61 61 64 65 64 64 63 68 72 70 68 68 70 71 70 73 70 73 71 70 71 71 71 71 71 72 73 72 72
48 54 61 58 55 53 52 48 50 51 57 57 53 51 53 60 60 62 63 64 64 65 67 69 68 66 66 66 66 69 70 70 71 71 70 68 69 68 68 68 69 70 70 71
51 59 59 55 54 55 47 57 57 55 49 43 52 39 49 54 58 59 61 61 62 64 66 67 67 64 66 67 65 65 65 67 69 68 68 66 65 63 64 66 66 65 68 69
52 53 53 52 55 58 52 59 55 54 48 44 45 41 47 52 56 59 60 62 63 65 64 65 65 70 64 64 64 64 64 64 63 64 64 62 61 61 61 62 62 62 64 67
55 61 60 58 62 60 62 53 49 44 41 35 43 42 42 49 54 58 61 62 63 64 65 64 62 62 61 61 60 60 61 61 62 62 62 62 61 60 59 59 59 59 60 61
52 54 61 63 55 56 53 42 34 33 33 33 44 41 44 53 57 57 56 55 55 58 58 58 59 60 58 59 60 61 62 60 62 63 64 64 64 63 62 61 60 59 59 59
45 42 56 61 56 51 46 44 34 29 30 34 44 37 45 55 58 58 58 56 57 54 53 55 57 61 61 61 61 62 62 61 61 61 61 61 60 60 59 59 59 59 59 59
46 48 61 62 62 60 50 43 47 37 35 32 37 44 52 55 56 57 57 59 57 56 57 58 58 57 58 59 59 60 60 59 59 59 58 59 59 59 59 59 59 58 58 62
50 42 55 58 61 60 54 58 43 39 30 26 34 37 40 46 49 52 53 52 55 56 57 57 57 58 57 58 57 58 59 58 58 58 58 59 59 59 59 58 57 57 57 58
50 46 47 53 48 44 46 44 45 43 41 29 28 34 51 50 49 49 50 52 52 54 56 56 55 56 57 56 57 57 58 59 58 59 59 59 58 59 58 58 58 57 57 57
49 44 39 44 50 52 47 43 42 34 33 34 32 35 50 51 51 53 52 54 54 56 60 60 57 58 57 58 59 60 60 60 60 59 59 58 58 57 57 57 57 56 56 56
45 37 32 38 45 48 44 44 42 39 36 32 29 34 51 53 53 56 53 57 61 58 57 59 60 60 60 61 61 61 61 62 61 58 58 57 57 55 56 56 57 55 55 55
48 37 35 31 36 40 37 42 42 38 33 35 38 38 45 48 49 53 55 57 57 59 60 58 58 59 59 58 58 59 58 58 58 57 55 55 55 55 54 55 55 55 55 54
40 33 35 37 41 42 41 41 41 36 37 33 38 39 45 48 49 51 55 56 56 56 55 55 54 52 53 54 55 56 55 55 55 56 55 54 54 54 54 54 54 54 54 55
39 31 34 33 41 41 38 41 41 41 42 41 42 41 49 54 54 50 49 51 50 51 53 54 55 55 53 54 55 56 55 56 55 54 54 55 54 54 53 53 52 52 52 53
36 36 31 28 37 36 30 37 41 43 44 43 37 43 46 45 46 45 46 49 51 52 53 53 53 53 52 52 53 52 53 54 54 54 56 56 55 55 55 55 53 53 51 50
35 36 33 31 30 22 38 49 48 44 45 46 45 46 47 46 47 47 47 46 50 50 50 50 49 49 50 50 49 49 50 50 51 51 53 55 55 55 56 54 51 50 48 48
39 36 32 28 29 34 41 44 43 42 41 45 46 50 50 51 49 44 51 50 46 45 48 48 48 48 47 45 46 46 46 46 47 48 49 50 50 50 49 49 47 48 46 46
43 42 34 31 22 23 38 46 51 50 34 46 48 46 47 46 38 41 46 49 48 49 48 46 45 44 43 43 44 43 44 43 45 47 48 50 49 49 49 49 48 49 47 49
35 34 31 31 29 32 43 46 52 34 31 44 45 42 42 40 42 44 45 46 45 45 43 42 42 40 40 42 41 42 42 42 45 46 46 47 47 46 47 48 48 48 49 50
33 32 31 33 30 26 45 46 39 41 45 47 46 44 42 43 45 44 45 44 43 42 42 42 40 39 40 41 40 41 41 44 43 43 43 43 43 45 47 46 46 47 46 46
32 37 34 36 32 42 46 45 47 47 46 47 46 46 45 43 42 43 41 41 40 40 40 40 37 39 41 41 40 38 40 41 41 41 40 41 44 44 45 44 44 44 45 44
40 43 39 36 41 43 44 46 47 49 49 50 50 48 44 40 40 39 39 38 37 38 39 39 37 37 37 39 40 39 40 41 39 38 38 41 41 41 43 44 44 42 42 42
41 41 38 38 40 42 45 45 47 47 47 46 46 43 41 40 39 37 36 37 37 36 37 36 35 35 36 38 37 39 41 41 38 38 39 38 39 39 39 40 40 41 43 42
41 40 37 34 43 40 40 43 46 43 42 43 42 41 41 37 35 35 35 35 34 34 35 35 36 34 34 36 38 39 39 39 37 36 36 37 36 36 37 37 37 41 41 41
MSLP
1007.79 1008.27 1008.32 1008.18 1007.83 1007.39 1007.39 1007.37 1006.96 1005.83 1004.48 1004.54 1004.05 1003.99 1003.48 1002.85 1003.09 1002.95 1002.50 1002.62 1002.75 1003.11 1002.42 1002.40 1002.36 1002.77 1003.23 1003.69 1004.08 1004.46 1004.97 1005.58 1006.31 1007.28 1007.93 1008.52 1008.77 1009.18 1009.58 1009.82 1009.95 1009.83 1010.08 1010.70
1007.47 1007.16 1006.83 1006.84 1006.96 1007.11 1007.03 1006.86 1006.42 1005.52 1004.52 1004.48 1003.81 1003.42 1003.06 1002.63 1002.69 1002.19 1002.43 1002.65 1002.69 1002.64 1002.57 1002.69 1002.60 1002.83 1003.01 1003.14 1003.57 1004.26 1004.80 1005.22 1005.79 1006.54 1007.21 1007.63 1008.14 1008.51 1008.81 1009.02 1009.28 1009.50 1009.70 1009.89
1006.88 1006.23 1005.94 1006.36 1006.35 1006.48 1006.08 1006.10 1005.66 1005.65 1004.58 1004.29 1004.34 1004.10 1003.30 1002.25 1001.96 1001.64 1001.71 1001.77 1002.18 1002.45 1002.55 1002.54 1002.52 1002.63 1002.82 1003.41 1003.60 1003.83 1004.12 1004.78 1005.67 1006.18 1006.76 1007.46 1007.96 1008.33 1008.56 1008.73 1009.03 1009.61 1009.74 1009.71
1006.16 1005.56 1005.62 1005.74 1005.69 1005.60 1005.49 1004.82 1004.98 1005.14 1005.66 1005.63 1005.00 1005.20 1004.34 1003.27 1002.52 1001.86 1001.78 1002.12 1002.29 1002.22 1002.19 1002.08 1002.21 1002.63 1002.60 1003.01 1003.59 1004.02 1004.33 1004.71 1005.16 1005.56 1006.28 1006.86 1007.44 1008.02 1008.09 1008.51 1008.82 1009.15 1009.18 1009.30
1005.33 1005.03 1004.95 1004.95 1004.68 1004.74 1004.56 1004.09 1004.67 1005.29 1005.77 1006.11 1006.19 1006.47 1004.77 1003.89 1003.11 1002.48 1001.88 1002.41 1002.24 1002.35 1002.62 1002.35 1002.27 1002.03 1002.72 1003.36 1003.70 1004.05 1004.53 1004.85 1005.21 1005.54 1005.88 1006.60 1007.44 1007.96 1008.40 1008.73 1009.06 1009.30 1009.44 1009.40
1004.81 1004.40 1004.38 1004.01 1003.69 1003.96 1004.02 1004.54 1005.48 1006.31 1006.82 1007.22 1006.73 1006.58 1005.68 1004.60 1003.49 1002.99 1002.46 1002.59 1002.67 1002.61 1002.32 1002.19 1002.59 1003.22 1003.61 1003.95 1004.65 1004.84 1004.94 1005.65 1005.91 1006.19 1006.60 1007.07 1007.64 1008.27 1008.58 1008.96 1009.18 1009.43 1009.61 1009.59
1004.73 1004.28 1003.75 1003.53 1003.72 1003.94 1004.42 1005.43 1007.13 1007.73 1008.10 1007.87 1007.09 1006.96 1005.68 1004.53 1003.78 1003.64 1003.59 1003.55 1003.06 1002.43 1002.43 1002.52 1002.70 1003.25 1004.17 1004.51 1005.19 1005.62 1005.87 1006.35 1006.46 1006.53 1006.76 1006.93 1007.23 1007.55 1008.11 1008.49 1008.66 1009.05 1009.57 1009.70
1004.96 1004.44 1003.50 1003.20 1003.56 1003.98 1004.72 1005.78 1007.20 1008.33 1009.06 1008.75 1007.53 1006.84 1005.67 1005.02 1004.42 1004.37 1004.03 1003.81 1003.61 1003.58 1003.68 1003.34 1003.43 1003.39 1004.10 1004.71 1005.24 1005.49 1005.74 1006.09 1006.30 1006.62 1006.93 1007.12 1007.37 1007.89 1008.34 1008.33 1008.42 1008.81 1009.19 1009.27
1005.18 1004.56 1003.71 1003.44 1003.51 1003.82 1004.82 1005.97 1006.77 1008.26 1009.32 1009.41 1008.44 1007.08 1006.12 1005.59 1005.06 1005.01 1004.81 1003.97 1004.15 1004.58 1005.07 1003.99 1004.50 1004.90 1004.67 1004.95 1005.63 1005.91 1006.32 1006.63 1006.82 1006.95 1007.06 1007.40 1007.80 1008.12 1008.32 1008.21 1008.22 1008.53 1008.83 1008.82
1005.49 1005.34 1004.56 1004.19 1003.95 1004.24 1004.73 1005.63 1007.23 1008.73 1009.98 1010.29 1009.17 1008.01 1006.77 1006.28 1005.91 1005.64 1005.52 1005.06 1004.79 1004.74 1005.36 1005.38 1005.30 1005.59 1005.71 1005.72 1006.04 1006.44 1006.66 1006.81 1007.09 1007.28 1007.57 1007.78 1007.87 1008.02 1008.18 1008.20 1008.44 1008.71 1008.78 1008.63
1006.35 1006.32 1006.12 1005.47 1005.63 1006.01 1006.18 1006.87 1008.04 1009.37 1010.29 1010.66 1010.25 1008.37 1006.82 1006.47 1006.31 1006.13 1005.98 1005.96 1005.55 1005.32 1005.29 1005.73 1005.94 1006.00 1006.01 1006.24 1006.44 1006.76 1006.85 1007.01 1007.32 1007.30 1007.39 1007.59 1007.79 1007.70 1007.75 1008.04 1008.21 1008.29 1008.26 1008.20
1007.76 1007.71 1007.68 1007.14 1006.83 1007.01 1007.28 1008.08 1008.84 1010.32 1011.06 1011.10 1010.26 1008.43 1007.28 1006.99 1007.04 1006.81 1006.74 1006.12 1005.85 1005.65 1005.55 1005.48 1005.81 1006.16 1006.42 1006.37 1006.35 1006.45 1006.61 1006.66 1006.60 1006.83 1007.08 1007.17 1007.40 1007.43 1007.52 1007.66 1007.60 1007.71 1007.80 1007.74
1008.89 1009.15 1009.39 1008.70 1008.11 1008.06 1008.62 1009.34 1009.92 1010.60 1011.13 1011.06 1010.47 1008.78 1007.55 1007.21 1006.96 1006.51 1006.54 1006.41 1005.93 1005.81 1005.59 1005.96 1006.11 1006.05 1006.27 1006.86 1006.69 1006.43 1006.39 1006.46 1006.50 1006.70 1006.94 1006.94 1006.77 1007.00 1007.07 1007.03 1006.96 1007.07 1007.22 1007.23
1009.63 1010.22 1010.33 1010.23 1009.94 1009.94 1009.98 1010.19 1010.53 1011.02 1011.63 1011.04 1010.06 1009.19 1007.86 1007.41 1007.27 1006.88 1006.55 1006.25 1005.99 1005.91 1005.94 1006.00 1006.23 1006.40 1006.73 1006.98 1006.95 1006.81 1006.91 1006.98 1006.97 1006.92 1006.77 1006.67 1006.66 1006.67 1006.62 1006.59 1006.66 1006.61 1006.42 1006.57
1010.90 1011.48 1011.43 1011.09 1010.89 1010.67 1010.45 1010.36 1010.31 1010.70 1010.54 1010.25 1009.49 1008.73 1008.04 1007.41 1006.82 1006.62 1006.33 1006.54 1006.17 1006.41 1006.43 1006.44 1006.72 1007.22 1007.29 1007.11 1006.97 1007.00 1007.05 1007.11 1007.04 1007.02 1007.01 1006.79 1006.54 1006.31 1006.13 1006.17 1005.99 1005.92 1005.90 1005.81
1012.01 1012.43 1012.36 1012.09 1011.52 1011.08 1010.61 1010.28 1009.92 1009.65 1009.38 1008.72 1008.59 1007.57 1007.51 1006.80 1006.55 1006.66 1006.67 1006.82 1007.00 1007.14 1006.96 1007.03 1007.05 1007.27 1007.41 1007.36 1007.37 1007.28 1006.93 1006.60 1006.61 1006.70 1006.66 1006.35 1006.11 1005.89 1005.79 1005.71 1005.60 1005.51 1005.40 1005.22
1012.65 1012.86 1013.29 1012.77 1012.06 1011.66 1010.59 1008.95 1008.63 1008.34 1007.72 1007.47 1007.59 1007.21 1007.01 1006.93 1006.78 1007.10 1007.32 1007.27 1007.32 1007.46 1007.57 1007.58 1007.72 1007.77 1007.68 1007.69 1007.72 1007.65 1007.38 1007.03 1006.85 1006.64 1006.21 1005.89 1005.63 1005.41 1005.20 1005.04 1004.96 1004.77 1004.56 1004.40
1012.77 1013.18 1013.70 1013.37 1012.91 1011.71 1009.30 1008.42 1008.02 1008.11 1007.91 1007.62 1007.30 1007.24 1007.22 1007.47 1007.68 1007.73 1007.66 1007.75 1007.80 1007.95 1008.04 1008.12 1008.27 1008.18 1008.09 1008.12 1008.18 1007.90 1007.52 1007.36 1007.18 1006.85 1006.46 1006.07 1005.76 1005.47 1005.20 1004.94 1004.71 1004.42 1004.11 1003.85
1012.52 1013.33 1013.76 1013.69 1012.99 1011.24 1009.20 1008.80 1008.29 1008.18 1008.58 1008.58 1008.15 1007.84 1007.64 1007.70 1008.28 1008.41 1008.10 1007.99 1008.23 1008.35 1008.36 1008.38 1008.39 1008.36 1008.30 1008.27 1008.17 1008.09 1007.89 1007.67 1007.40 1007.01 1006.64 1006.30 1005.96 1005.58 1005.19 1004.81 1004.45 1004.15 1003.88 1003.58
1012.29 1012.80 1013.56 1013.40 1013.03 1011.71 1010.02 1009.47 1008.82 1008.61 1008.95 1008.97 1008.77 1008.70 1008.53 1008.46 1008.81 1008.85 1008.82 1008.62 1008.47 1008.42 1008.44 1008.57 1008.61 1008.81 1008.93 1008.82 1008.60 1008.42 1008.06 1007.70 1007.26 1006.80 1006.40 1005.92 1005.46 1004.94 1004.42 1004.06 1003.69 1003.28 1003.00 1002.68
1012.43 1012.64 1012.67 1012.72 1012.39 1011.31 1010.45 1009.91 1009.12 1009.49 1010.08 1009.24 1009.17 1009.01 1008.84 1008.97 1009.27 1009.04 1008.92 1008.89 1008.93 1008.98 1009.09 1009.26 1009.29 1009.29 1009.12 1008.77 1008.50 1008.18 1007.77 1007.24 1006.65 1006.20 1005.75 1005.30 1004.84 1004.33 1003.80 1003.26 1002.92 1002.58 1002.22 1001.78
1012.35 1012.29 1012.11 1012.08 1011.83 1011.31 1010.31 1010.03 1010.15 1010.28 1009.92 1009.58 1009.55 1009.52 1009.40 1009.34 1009.34 1009.45 1009.54 1009.50 1009.41 1009.57 1009.69 1009.72 1009.63 1009.41 1009.04 1008.66 1008.39 1007.85 1007.25 1006.56 1006.24 1005.89 1005.36 1004.79 1004.34 1003.89 1003.30 1002.81 1002.34 1002.02 1001.66 1001.22
1012.16 1011.83 1011.82 1011.81 1010.95 1010.23 1010.13 1010.11 1010.13 1010.14 1010.02 1009.86 1009.85 1009.85 1009.86 1009.85 1009.85 1009.81 1009.73 1009.84 1009.98 1010.01 1009.91 1009.72 1009.54 1009.14 1008.63 1008.18 1007.86 1007.23 1006.58 1006.33 1005.87 1005.36 1004.82 1004.30 1003.66 1003.13 1002.64 1002.15 1001.58 1001.14 1000.83 1000.42
1011.67 1011.15 1011.28 1011.07 1010.39 1010.16 1010.12 1010.11 1010.01 1009.84 1009.84 1009.75 1009.91 1009.89 1010.10 1010.28 1010.23 1010.23 1010.27 1010.22 1010.18 1010.03 1009.82 1009.63 1009.37 1008.91 1008.24 1007.74 1007.29 1006.84 1006.39 1005.94 1005.40 1004.72 1004.14 1003.58 1002.99 1002.44 1001.99 1001.38 1000.96 1000.51 1000.12 999.81
1011.49 1011.04 1010.70 1010.43 1010.14 1010.28 1010.18 1010.25 1010.12 1010.10 1010.18 1010.32 1010.37 1010.42 1010.53 1010.53 1010.60 1010.81 1010.78 1010.63 1010.46 1010.20 1009.80 1009.56 1009.12 1008.51 1007.82 1007.39 1006.95 1006.43 1005.82 1005.31 1004.67 1004.09 1003.56 1003.02 1002.47 1001.93 1001.30 1000.85 1000.32 999.80 999.17 998.93
1011.01 1010.63 1010.72 1010.52 1010.06 1010.23 1010.52 1010.63 1010.44 1010.57 1010.69 1010.64 1010.70 1010.71 1010.80 1011.18 1011.36 1011.26 1010.97 1010.80 1010.57 1009.98 1009.43 1009.04 1008.64 1008.27 1007.63 1007.07 1006.34 1005.85 1005.46 1005.10 1004.49 1003.79 1003.16 1002.42 1001.83 1001.18 1000.71 1000.10 999.22 998.93 998.54 998.23
Wind_Speed
7 4 8 8 7 2 3 4 5 6 10 5 8 6 10 10 5 9 11 8 9 11 12 8 7 6 8 7 7 9 11 9 9 5 5 3 5 3 3 4 6 5 6 6
3 7 11 7 5 5 6 4 6 9 6 3 7 7 8 6 8 12 13 10 9 5 7 8 7 7 9 11 12 10 12 11 9 6 3 4 4 3 4 4 5 7 5 7
7 10 3 4 8 6 6 5 6 7 7 3 2 7 6 5 4 4 6 7 6 11 11 8 8 10 8 8 10 10 9 9 8 8 6 4 3 2 3 2 2 3 5 4
6 9 10 5 7 7 6 8 10 7 3 4 3 5 6 6 8 1 1 3 9 9 8 5 9 8 11 9 6 8 8 9 9 11 8 7 5 4 2 2 0 2 3 1
8 2 2 3 5 5 11 6 10 6 4 5 2 4 8 6 7 7 5 7 9 10 8 9 10 14 6 8 9 9 9 8 7 7 7 6 6 3 3 2 2 3 3 2
7 3 3 6 5 4 6 2 8 5 4 1 5 6 6 3 4 7 7 9 8 10 11 9 6 7 6 7 5 5 9 5 7 7 8 9 9 6 4 3 2 1 1 3
5 5 5 5 4 4 5 6 2 4 3 6 3 3 9 7 5 3 4 7 9 7 7 8 11 10 8 9 9 8 9 8 7 8 7 7 6 6 4 3 2 2 2 2
5 6 6 2 3 4 1 6 7 5 3 4 5 3 5 4 3 3 4 6 11 10 6 8 7 11 12 10 9 9 8 7 5 6 5 4 4 3 3 3 3 3 2 1
4 4 1 4 2 5 3 2 4 6 3 3 3 5 5 5 7 6 6 15 14 12 10 12 10 8 7 9 6 6 5 4 3 3 2 2 4 6 5 5 4 3 2 2
4 2 3 2 1 3 2 6 3 4 2 3 5 3 5 2 3 3 5 6 8 9 9 7 8 7 5 6 6 6 6 6 5 6 5 4 6 5 5 4 4 4 4 3
3 3 4 2 3 2 6 4 5 3 4 5 3 6 3 4 3 5 3 3 4 6 7 5 3 3 6 6 7 7 7 8 7 7 5 5 4 4 5 4 4 6 4 5
2 3 2 5 2 5 1 3 4 6 5 4 3 6 1 3 3 2 5 3 2 5 3 6 9 7 6 7 7 7 6 7 8 7 6 7 6 6 5 6 6 5 5 4
3 1 1 7 5 5 6 3 4 4 4 5 5 6 2 2 4 5 4 6 5 2 2 2 5 7 6 3 3 6 7 7 6 6 7 6 6 6 7 7 7 6 6 7
3 2 4 6 1 1 2 1 2 5 4 3 8 6 7 6 7 7 7 8 9 7 4 2 3 4 3 4 3 3 5 5 5 4 4 6 7 8 7 7 7 7 7 7
5 2 1 2 4 3 4 7 7 8 8 11 7 14 13 10 9 10 7 7 5 7 5 3 2 1 1 3 3 2 0 3 4 6 7 9 8 8 7 8 8 7 7 7
3 1 3 3 4 7 8 8 12 15 16 16 17 19 9 15 10 5 3 4 6 5 6 6 5 4 3 3 3 5 5 6 3 5 7 8 8 7 7 8 8 7 8 8
1 3 2 4 1 5 7 9 8 6 9 8 13 9 4 3 4 6 5 6 7 5 4 5 4 3 4 5 5 6 7 7 7 7 8 8 8 9 9 9 9 10 11 9
3 4 2 2 4 3 7 5 3 5 8 7 4 4 6 4 3 4 3 5 6 5 4 4 4 4 4 3 5 6 6 6 6 8 9 9 10 11 12 9 9 9 7 9
5 5 2 2 3 7 6 5 3 4 3 7 10 6 2 5 3 1 5 4 2 2 2 3 3 3 4 4 6 6 6 6 6 8 8 8 6 9 9 9 8 8 6 8
8 5 3 3 2 4 2 10 13 1 3 5 1 6 7 0 3 3 4 5 6 7 4 6 6 4 5 6 6 7 8 7 10 10 11 11 11 13 14 13 12 12 9 12
3 2 8 6 4 6 5 12 6 4 3 4 4 1 2 0 4 4 5 5 4 3 3 4 5 5 6 7 6 10 10 11 12 10 12 14 14 14 14 15 13 12 13 13
3 3 3 3 4 7 1 7 2 0 6 5 4 4 3 4 5 4 6 5 4 4 6 5 6 7 7 7 7 12 14 13 9 12 15 14 13 12 12 14 13 13 12 13
2 3 2 5 5 2 3 5 1 1 4 5 4 3 5 6 4 6 5 4 3 5 6 6 6 9 10 10 8 13 13 9 13 14 14 14 14 13 13 13 14 12 11 11
4 2 3 1 1 3 5 4 6 6 4 3 2 4 4 5 5 5 5 6 6 6 9 8 9 12 13 10 10 11 13 13 13 15 14 13 13 14 13 9 9 9 10 10
5 2 2 4 1 1 6 4 5 3 3 5 5 3 4 5 5 5 6 8 8 10 10 9 11 11 13 12 13 13 13 13 14 14 13 12 11 12 11 10 10 10 11 10
2 3 2 4 2 2 0 1 3 3 4 4 3 7 6 6 7 7 10 8 9 12 11 11 12 13 14 14 14 14 13 13 13 13 11 10 10 10 9 10 11 15 18 20
Wind_Direction
190 148 220 235 222 170 218 236 246 272 270 257 235 235 240 246 207 256 256 238 234 200 222 219 220 144 155 161 172 173 153 157 143 153 153 153 188 174 203 193 231 230 215 234
354 232 229 229 231 214 207 239 258 274 272 159 301 298 273 259 229 202 218 234 241 260 214 196 198 177 178 176 183 172 177 160 168 164 142 146 150 164 164 175 194 223 237 225
188 238 22 189 265 248 246 203 255 210 322 269 302 310 331 311 252 220 212 199 224 221 216 192 185 191 165 170 177 181 168 151 148 140 116 90 90 95 151 145 150 136 212 206
219 268 251 241 245 185 271 227 239 261 125 251 66 274 304 332 326 19 270 288 267 232 219 216 193 185 176 178 126 125 130 140 153 156 156 159 164 152 188 146 267 25 32 340
232 263 171 278 227 160 240 280 200 235 185 116 315 82 272 335 317 299 297 237 261 243 254 244 207 195 153 139 159 155 152 147 134 142 138 126 120 135 141 113 44 20 31 351
242 250 227 235 264 225 265 113 47 47 90 59 234 138 284 242 257 314 317 321 291 240 247 231 165 112 107 112 110 117 117 111 124 121 127 137 144 157 138 167 165 89 65 84
297 259 218 222 277 32 73 51 319 333 351 214 131 91 232 292 303 276 283 329 337 319 205 165 155 137 123 122 127 126 131 135 146 134 138 139 141 136 159 164 137 54 58 59
200 318 181 165 191 198 153 145 149 218 220 272 321 235 248 294 85 31 73 72 41 24 37 70 90 125 125 124 126 125 125 130 123 114 136 150 145 145 169 170 136 124 127 136
194 255 356 68 297 161 185 97 186 104 15 71 257 289 316 2 43 31 64 80 73 46 23 65 55 44 70 88 81 105 105 89 122 133 112 155 160 164 167 150 129 127 142 143
204 289 3 345 1 12 135 165 87 9 168 255 292 265 232 251 136 50 40 60 94 106 85 66 86 98 88 108 119 129 141 142 151 139 148 153 149 154 153 141 151 175 187 174
11 104 276 28 32 59 357 357 62 95 154 158 267 261 272 222 193 142 97 36 91 95 101 95 104 96 130 131 141 143 142 144 160 167 167 157 173 170 155 172 195 199 197 199
13 110 264 258 263 211 93 97 98 143 217 230 193 257 320 55 309 346 290 200 100 92 99 149 162 162 167 173 169 168 169 172 186 186 180 184 182 173 187 212 219 214 232 233
342 27 44 335 2 21 61 47 88 67 66 226 181 258 206 214 295 304 300 267 185 221 188 187 201 176 180 215 195 187 193 207 201 197 197 199 199 206 224 232 236 224 225 237
80 83 167 192 196 171 293 251 200 161 181 227 240 298 284 269 271 263 239 268 323 325 296 186 204 217 213 216 257 326 300 280 272 263 229 214 225 225 228 232 238 239 234 228
76 162 333 286 302 292 256 288 288 209 220 222 220 228 243 257 261 253 249 264 267 286 325 276 253 357 332 22 27 47 167 257 258 248 243 244 249 245 240 236 232 240 243 245
352 244 20 288 273 277 283 276 252 256 255 248 245 254 238 250 269 262 266 136 99 70 55 44 60 48 35 18 352 348 336 323 321 280 259 254 256 256 251 253 245 237 241 240
136 113 38 267 57 330 294 246 249 260 230 217 232 241 218 240 99 113 98 107 109 95 62 35 10 331 334 322 311 301 305 314 303 289 284 281 276 269 260 252 246 240 232 226
167 114 147 284 351 235 239 305 101 51 20 16 74 110 102 115 112 121 124 91 63 43 22 348 340 327 291 312 316 310 315 312 310 305 303 302 302 301 299 287 264 256 245 236
169 133 196 221 246 297 321 7 31 357 313 9 359 356 57 120 179 308 14 67 86 336 293 265 274 293 333 9 350 344 329 322 316 304 295 295 293 296 294 289 279 274 265 258
168 151 174 173 173 248 36 350 346 249 244 22 348 311 296 224 179 238 335 328 338 334 348 351 5 26 7 330 326 320 310 302 298 293 289 289 284 279 276 273 268 267 254 262
152 184 214 208 215 282 9 333 323 211 245 349 6 316 17 24 211 260 320 323 326 323 79 6 348 326 298 296 296 299 298 287 287 288 293 292 287 283 280 278 277 276 274 268
210 216 196 189 215 257 11 355 318 244 292 318 317 316 281 251 280 281 296 315 354 24 333 324 308 295 291 281 283 293 291 294 295 297 290 287 288 286 284 283 279 275 273 272
220 215 208 222 225 240 188 237 149 247 267 281 296 283 285 287 290 308 303 321 322 306 293 288 283 295 297 293 280 285 290 296 297 293 290 286 285 285 283 282 277 271 268 268
319 181 217 134 236 212 185 192 201 205 248 304 301 284 312 299 304 297 318 324 316 311 312 311 306 299 295 298 299 295 301 298 297 294 293 294 293 291 286 286 287 276 267 266
219 304 267 264 258 179 257 281 275 317 4 338 344 7 334 323 326 327 315 311 308 306 306 303 298 292 298 308 300 297 301 305 301 298 296 290 284 283 285 273 271 269 264 252
208 192 172 242 282 205 51 338 22 41 352 358 8 325 342 25 339 321 305 301 308 305 307 304 306 306 300 299 304 307 305 300 297 295 292 287 287 283 279 278 280 264 267 271